This is the latest recevied weather packets stored in our database for station/object DH4BS-10. If no packets are shown the sender has not sent any weather packets the latest 10 day(s).
| Time | Temp. | Humidity | Pressure | Rain* | Wind** | Luminosity | Snow |
|---|---|---|---|---|---|---|---|
| 1778253246 | 21.11° C | 45% | 1020.5 hPa | - | - | - | - |
| 1778249646 | 20.56° C | 45% | 1020.4 hPa | - | - | - | - |
| 1778246046 | 20.56° C | 45% | 1020.5 hPa | - | - | - | - |
| 1778242446 | 20.56° C | 45% | 1020.6 hPa | - | - | - | - |
| 1778238845 | 20° C | 45% | 1020.6 hPa | - | - | - | - |
| 1778235245 | 19.44° C | 45% | 1020.6 hPa | - | - | - | - |
| 1778231644 | 19.44° C | 45% | 1020.5 hPa | - | - | - | - |
| 1778228044 | 18.33° C | 45% | 1020.6 hPa | - | - | - | - |
| 1778224444 | 17.78° C | 45% | 1020.5 hPa | - | - | - | - |
| 1778220844 | 17.22° C | 45% | 1019.8 hPa | - | - | - | - |
| 1778217244 | 16.67° C | 45% | 1019.6 hPa | - | - | - | - |
| 1778213644 | 16.67° C | 45% | 1019.3 hPa | - | - | - | - |
| 1778210043 | 17.22° C | 45% | 1019.2 hPa | - | - | - | - |
| 1778206443 | 17.22° C | 45% | 1019.4 hPa | - | - | - | - |
| 1778202843 | 17.22° C | 45% | 1019.4 hPa | - | - | - | - |
| 1778199243 | 17.22° C | 45% | 1019.2 hPa | - | - | - | - |
| 1778195643 | 17.22° C | 45% | 1019.4 hPa | - | - | - | - |
| 1778192043 | 17.22° C | 45% | 1019.3 hPa | - | - | - | - |
| 1778188442 | 17.78° C | 45% | 1019.1 hPa | - | - | - | - |
| 1778184842 | 17.22° C | 45% | 1018.9 hPa | - | - | - | - |
| 1778181246 | 17.78° C | 46% | 1018.5 hPa | - | - | - | - |
| 1778177645 | 17.78° C | 45% | 1018.3 hPa | - | - | - | - |
| 1778174045 | 18.33° C | 45% | 1018 hPa | - | - | - | - |
| 1778170445 | 18.33° C | 45% | 1017.7 hPa | - | - | - | - |
| 1778166845 | 18.33° C | 45% | 1017.4 hPa | - | - | - | - |
* Rain since midnight (hover to see other rain measurements)
** Current wind speed in m/s (hover to see current wind gust speed)